User: anonymous   Login
Location: Unspecified
(0.0000°N, 0.0000°E)
Time: 07:51:14
(UTC+00:00)
Language:

Sirio 1 - Orbit

View from above orbital plane
View from above orbital plane
View from above satellite
View from above satellite

Ground track
Ground track

The orbit data is extracted from the following two-line orbital elements,

1 10294U 77080A   18112.63580819 -.00000121  00000-0  00000+0 0  9995
2 10294  13.2256 328.7508 0006718  57.3992 128.6900  1.00270900 88064
Epoch (UTC): 22 April 2018 15:15:33
Eccentricity: 0.0006718
inclination: 13.2256°
perigee height: 35758 km
apogee height: 35815 km
right ascension of ascending node: 328.7508°
argument of perigee: 57.3992°
revolutions per day: 1.00270900
mean anomaly at epoch: 128.6900°
orbit number at epoch: 8806

The dashed part of the orbit path shows where the satellite is in the earth's shadow,  

DLR